Powrót do katalogu

HULIANWANG DIGUI-45

AktywnyŁącznośćLEO
NORAD 65048·PAYLOAD·🇨🇳 China

Wystrzelony Jul 30, 2025 z Wenchang Space Launch Site

Loading…

Następne Przeloty (najbliższe 24 godziny)

TLE

ŚwieżeSource: Space-Track

Epoka: Sep 14, 2026, 21:19 UTC

1 65048U 25162F   26257.88855699 -.00000077  00000-0  10217-3 0  9998
2 65048  50.0052 303.9889 0000707 260.0033 100.0759 13.29326621 55293

Śledź HULIANWANG DIGUI-45 w czasie rzeczywistym z AllMySat

Download on the App Store